Mesquite, TX

9:42 AM CST on December 18, 2017 (GMT -0600)
Mesquite Metro

Weather History for KHQZ - October, 2012

Change the Weather History Date:

Thursday, October 25, 2012

  Actual Average (KDFW) Record (KDFW)
Temperature  
Mean Temperature 66 °F -  
Max Temperature 80 °F 73 °F 89 °F (1992)
Min Temperature 53 °F 54 °F 35 °F (1980)
Cooling Degree Days 2    
Growing Degree Days 16 (Base 50)    
Moisture  
Dew Point 60 °F    
Average Humidity 77    
Maximum Humidity 94    
Minimum Humidity 57    
Precipitation  
Precipitation 0.08 in - - ()
Sea Level Pressure  
Sea Level Pressure 29.92 in    
Wind  
Wind Speed 12 mph (SSW)    
Max Wind Speed 24 mph    
Max Gust Speed 29 mph    
Visibility 10 miles    
Events      
Averages and records for this station are not official NWS values.
T = Trace of Precipitation, MM = Missing Value Source: NWS Daily Summary

Daily Weather History Graph

Daily Weather History Graph

Search for Another Location

Airport or City:

Trip Planner

Search our weather history database for the weather conditions in past years. The results will help you decide how hot, cold, wet, or windy it might be!

Date:

Astronomy

Oct. 25, 2012 Rise Set
Actual Time 7:38 AM CDT 6:41 PM CDT
Civil Twilight 7:13 AM CDT 7:06 PM CDT
Nautical Twilight 6:44 AM CDT 7:35 PM CDT
Astronomical Twilight 6:15 AM CDT 8:04 PM CDT
Moon 4:18 PM CDT (10/25) 3:47 AM CDT (10/25)
Length of Visible Light 11h 53m
Length of Day
11h 03m
Waxing Gibbous, 84% of the Moon is Illuminated
Oct 25
Waxing Gibbous
Oct 29
Full
Nov 6
Last Quarter
Nov 13
New
Nov 20
First Quarter

Hourly Weather History & Observations

Time (CDT) Temp. Heat Index Dew Point Humidity Pressure Visibility Wind Dir Wind Speed Gust Speed Precip Events Conditions
12:15 AM 69.8 °F - 60.8 °F 73% 29.85 in 10.0 mi SSE 13.8 mph - N/A   Clear
12:35 AM 69.8 °F - 62.6 °F 78% 29.85 in 10.0 mi SSE 11.5 mph 19.6 mph N/A   Clear
12:55 AM 69.8 °F - 62.6 °F 78% 29.84 in 10.0 mi SSE 11.5 mph - N/A   Clear
1:15 AM 69.8 °F - 62.6 °F 78% 29.84 in 10.0 mi SSE 12.7 mph 18.4 mph N/A   Clear
1:35 AM 69.8 °F - 62.6 °F 78% 29.83 in 10.0 mi SSE 13.8 mph - N/A   Clear
1:55 AM 69.8 °F - 62.6 °F 78% 29.83 in 10.0 mi SSE 11.5 mph - N/A   Clear
2:15 AM 69.8 °F - 62.6 °F 78% 29.84 in 10.0 mi SSE 13.8 mph - N/A   Clear
2:35 AM 68.0 °F - 62.6 °F 83% 29.84 in 10.0 mi SSE 10.4 mph - N/A   Clear
2:55 AM 68.0 °F - 62.6 °F 83% 29.84 in 10.0 mi SSE 9.2 mph - N/A   Clear
3:15 AM 68.0 °F - 62.6 °F 83% 29.84 in 10.0 mi South 11.5 mph - N/A   Clear
3:35 AM 68.0 °F - 62.6 °F 83% 29.83 in 10.0 mi SSE 9.2 mph - N/A   Scattered Clouds
3:55 AM 68.0 °F - 62.6 °F 83% 29.83 in 10.0 mi SSE 10.4 mph - N/A   Mostly Cloudy
4:15 AM 68.0 °F - 64.4 °F 88% 29.83 in 10.0 mi SSE 9.2 mph - N/A   Overcast
4:35 AM 68.0 °F - 64.4 °F 88% 29.84 in 10.0 mi South 6.9 mph - N/A   Overcast
4:55 AM 69.8 °F - 64.4 °F 83% 29.85 in 10.0 mi South 10.4 mph - N/A   Overcast
5:15 AM 69.8 °F - 64.4 °F 83% 29.85 in 10.0 mi South 8.1 mph 18.4 mph N/A   Overcast
5:35 AM 69.8 °F - 64.4 °F 83% 29.86 in 10.0 mi South 9.2 mph - N/A   Overcast
5:55 AM 69.8 °F - 64.4 °F 83% 29.85 in 10.0 mi South 11.5 mph - N/A   Overcast
6:15 AM 69.8 °F - 64.4 °F 83% 29.86 in 10.0 mi South 10.4 mph 17.3 mph N/A   Scattered Clouds
6:35 AM 69.8 °F - 64.4 °F 83% 29.87 in 10.0 mi South 10.4 mph - N/A   Scattered Clouds
7:35 AM 68.0 °F - 64.4 °F 88% 29.88 in 10.0 mi SSE 8.1 mph - N/A   Scattered Clouds
8:15 AM 68.0 °F - 64.4 °F 88% 29.88 in 10.0 mi South 9.2 mph - N/A   Clear
8:35 AM 69.8 °F - 64.4 °F 83% 29.89 in 10.0 mi South 8.1 mph - N/A   Clear
8:55 AM 71.6 °F - 66.2 °F 83% 29.89 in 10.0 mi South 11.5 mph - N/A   Clear
9:15 AM 71.6 °F - 66.2 °F 83% 29.90 in 10.0 mi South 11.5 mph 16.1 mph N/A   Clear
9:35 AM 73.4 °F - 66.2 °F 78% 29.90 in 10.0 mi South 15.0 mph 20.7 mph N/A   Clear
9:55 AM 73.4 °F - 66.2 °F 78% 29.90 in 10.0 mi South 17.3 mph 21.9 mph N/A   Clear
10:35 AM 75.2 °F - 64.4 °F 69% 29.91 in 10.0 mi SSW 11.5 mph 24.2 mph N/A   Mostly Cloudy
10:55 AM 75.2 °F - 64.4 °F 69% 29.92 in 10.0 mi SSW 8.1 mph 11.5 mph N/A   Scattered Clouds
11:15 AM 78.8 °F - 64.4 °F 61% 29.92 in 10.0 mi South 16.1 mph 19.6 mph N/A   Scattered Clouds
11:35 AM 78.8 °F - 64.4 °F 61% 29.92 in 10.0 mi SSW 15.0 mph - N/A   Clear
11:55 AM 78.8 °F - 62.6 °F 57% 29.92 in 10.0 mi SSW 9.2 mph - N/A   Mostly Cloudy
12:35 PM 78.8 °F - 64.4 °F 61% 29.91 in 10.0 mi SSW 8.1 mph - N/A   Overcast
12:55 PM 78.8 °F - 64.4 °F 61% 29.91 in 10.0 mi SSW 8.1 mph - N/A   Overcast
1:15 PM 78.8 °F - 64.4 °F 61% 29.90 in 10.0 mi SSW 6.9 mph - N/A   Overcast
1:35 PM 80.6 °F 82.3 °F 64.4 °F 58% 29.89 in 10.0 mi SW 8.1 mph - N/A   Overcast
1:55 PM 78.8 °F - 64.4 °F 61% 29.89 in 10.0 mi SW 9.2 mph - N/A   Overcast
2:15 PM 78.8 °F - 64.4 °F 61% 29.88 in 10.0 mi SW 5.8 mph - N/A   Overcast
2:35 PM 78.8 °F - 64.4 °F 61% 29.88 in 10.0 mi WSW 5.8 mph - N/A   Overcast
3:15 PM 77.0 °F - 64.4 °F 65% 29.88 in 10.0 mi Calm Calm - N/A   Overcast
3:35 PM 78.8 °F - 64.4 °F 61% 29.88 in 10.0 mi South 3.5 mph - N/A   Overcast
3:55 PM 77.0 °F - 64.4 °F 65% 29.90 in 5.0 mi NW 20.7 mph - 0.01 in   Overcast
4:15 PM 62.6 °F - 59.0 °F 88% 29.93 in 4.0 mi NNW 19.6 mph 26.5 mph 0.01 in   Overcast
4:35 PM 60.8 °F - 55.4 °F 82% 29.94 in 10.0 mi North 12.7 mph 25.3 mph 0.01 in   Overcast
4:55 PM 59.0 °F - 55.4 °F 88% 29.95 in 10.0 mi North 15.0 mph 19.6 mph 0.01 in   Overcast
5:35 PM 59.0 °F - 55.4 °F 88% 29.96 in 7.0 mi North 12.7 mph - N/A   Overcast
5:55 PM 59.0 °F - 55.4 °F 88% 29.97 in 7.0 mi North 18.4 mph 26.5 mph 0.01 in   Overcast
6:15 PM 57.2 °F - 53.6 °F 88% 29.98 in 10.0 mi North 15.0 mph 24.2 mph N/A   Overcast
6:35 PM 57.2 °F - 53.6 °F 88% 29.99 in 10.0 mi North 11.5 mph 17.3 mph N/A   Overcast
6:55 PM 55.4 °F - 53.6 °F 94% 30.00 in 7.0 mi North 12.7 mph 21.9 mph N/A   Overcast
7:15 PM 55.4 °F - 51.8 °F 88% 30.01 in 10.0 mi North 12.7 mph 20.7 mph N/A   Overcast
7:35 PM 57.2 °F - 51.8 °F 82% 30.01 in 10.0 mi North 13.8 mph 18.4 mph N/A   Overcast
8:15 PM 57.2 °F - 51.8 °F 82% 30.02 in 10.0 mi North 10.4 mph 16.1 mph N/A   Overcast
8:35 PM 57.2 °F - 50.0 °F 77% 30.03 in 10.0 mi North 11.5 mph - N/A   Overcast
8:55 PM 55.4 °F - 48.2 °F 77% 30.04 in 5.0 mi North 11.5 mph - 0.02 in   Overcast
9:15 PM 53.6 °F - 46.4 °F 77% 30.05 in 4.0 mi North 13.8 mph 24.2 mph 0.03 in   Overcast
9:35 PM 53.6 °F - 46.4 °F 77% 30.05 in 10.0 mi North 19.6 mph 26.5 mph 0.03 in   Overcast
9:55 PM 53.6 °F - 44.6 °F 72% 30.06 in 10.0 mi North 24.2 mph 28.8 mph 0.03 in   Overcast
10:55 PM 55.4 °F - 44.6 °F 67% 30.07 in 10.0 mi North 17.3 mph 26.5 mph N/A   Overcast
11:15 PM 55.4 °F - 44.6 °F 67% 30.07 in 10.0 mi North 12.7 mph 18.4 mph N/A   Overcast
11:35 PM 55.4 °F - 42.8 °F 63% 30.07 in 10.0 mi North 16.1 mph 25.3 mph N/A   Overcast
11:55 PM 53.6 °F - 42.8 °F 67% 30.08 in 10.0 mi North 17.3 mph 24.2 mph N/A   Overcast